Regional Weather Roundup
Issued by NWS Cleveland, OH

Home | Current Version | Previous Version | Text Only | Print | Product List | Glossary Off
Versions: 1 2 3 4 5 6 7 8 9 10 11 12 13 14 15 16 17 18 19 20 21 22 23 24 25 26 27 28 29 30 31 32 33 34 35 36 37 38 39 40 41 42 43 44 45 46 47 48 49 50

000
ASUS41 KCLE 110710
RWRCLE
OHIO REGIONAL WEATHER ROUNDUP
NATIONAL WEATHER SERVICE CLEVELAND, OH
200 AM EST MON DEC 11 2017

NOTE: "FAIR" INDICATES FEW OR NO CLOUDS BELOW 12,000 FEET WITH NO
SIGNIFICANT WEATHER AND/OR OBSTRUCTIONS TO VISIBILITY.

OHZ001>008-015>018-024>027-034-035-043-044-110800-
   NORTHWEST OHIO

CITY           SKY/WX    TMP DP  RH WIND       PRES   REMARKS
DEFIANCE       CLOUDY    29  21  72 W3        30.04F
FINDLAY        MOCLDY    29  20  69 NW14      30.03R WCI  18
TOLEDO EXPRESS PTCLDY    23  21  92 W6        30.03R WCI  16
TOLEDO EXEC    PTCLDY    26  19  74 NW8       30.03R WCI  18
LIMA           CLOUDY    30  24  78 NW10      30.03R WCI  21
$$

OHZ009>014-019>023-028>033-038-089-110800-
   NORTHEAST OHIO

CITY           SKY/WX    TMP DP  RH WIND       PRES   REMARKS
CLE-HOPKINS    FLURRIES  31  23  72 W10       30.00R WCI  22
CLE-LAKEFRONT  CLOUDY    33  25  72 NW18G26   29.97S WCI  22
CUY CO. ARPT   NOT AVBL
LORAIN-ELYRIA  CLOUDY    30  20  66 NW10      30.00R WCI  21
ASHTABULA      FLURRIES  28  24  85 W3        29.95R
AKRON-CANTON   CLOUDY    31  20  63 W10       29.96R WCI  22
WOOSTER        CLOUDY    29  21  72 NW10      29.99R WCI  20
MANSFIELD      CLOUDY    29  22  75 W8        29.99R WCI  21
YOUNGSTOWN     FLURRIES  30  20  66 W9        29.94R WCI  22
$$

OHZ042-051>053-060>062-070>072-077>081-110800-
  SOUTHWEST OHIO

CITY           SKY/WX    TMP DP  RH WIND       PRES   REMARKS
CINC-COVINGTON CLEAR     26  22  84 W7        30.08R WCI  18
CINC-LUNKEN    CLEAR     32  23  69 W7        30.12R WCI  26
HAMILTON       CLEAR     24  21  88 W3        30.10R
DAYTON         CLOUDY    30  24  78 NW9       30.07R WCI  22
WRIGHT-PAT AFB CLOUDY    31  24  73 NW9       30.06R WCI  23
DAYTON GENERAL CLOUDY    30  22  72 NW7       30.06R WCI  23
WILMINGTON     CLOUDY    29  22  75 W8        30.05R WCI  21
$$

OHZ036-037-039>041-045>050-054>059-063>069-073>076-082>088-110800-
  CENTRAL AND SOUTHEAST OHIO

CITY           SKY/WX    TMP DP  RH WIND       PRES   REMARKS
COLUMBUS       CLOUDY    33  24  69 NW15G22   30.03R WCI  23
OSU AIRPORT    CLOUDY    31  23  72 NW13      30.04R WCI  21
BOLTON FIELD   CLOUDY    32  23  70 NW14      30.04R WCI  22
RICKENBACK AFB CLOUDY    32  24  71 NW13      30.04R WCI  22
NEWARK         CLOUDY    33  22  63 W7        30.01R WCI  27
MARION         CLOUDY    30  22  72 NW13      30.03R WCI  20
LANCASTER      CLOUDY    33  23  66 W9        30.03R WCI  25
ZANESVILLE     CLOUDY    33  20  58 W5        30.01R WCI  29
NEW PHILLY     NOT AVBL
$$




USA.gov is the U.S. government's official web portal to all federal, state and local government web resources and services.